TimeCST,TemperatureF,Dew PointF,Humidity,Sea Level PressureIn,VisibilityMPH,Wind Direction,Wind SpeedMPH,Gust SpeedMPH,PrecipitationIn,Events,Conditions,WindDirDegrees,DateUTC
12:15 AM,75.2,66.2,73,29.65,5.0,SSE,20.7,32.2,N/A,,Haze,160,2013-02-21 06:15:00
12:35 AM,75.2,66.2,73,29.65,7.0,SSE,20.7,33.4,N/A,,Overcast,160,2013-02-21 06:35:00
12:55 AM,74.8,66.2,74,29.65,5.0,SSE,21.9,27.6,N/A,,Haze,160,2013-02-21 06:55:00
1:15 AM,74.8,66.4,75,29.64,7.0,SSE,18.4,28.8,N/A,,Overcast,160,2013-02-21 07:15:00
1:35 AM,74.8,66.4,75,29.64,5.0,SSE,18.4,27.6,N/A,,Haze,160,2013-02-21 07:35:00
1:55 AM,74.8,66.4,75,29.64,7.0,SSE,18.4,24.2,N/A,,Overcast,160,2013-02-21 07:55:00
2:15 AM,75.2,66.6,74,29.64,5.0,South,16.1,23.0,N/A,,Haze,170,2013-02-21 08:15:00
2:35 AM,74.8,66.6,75,29.63,7.0,South,15.0,21.9,N/A,,Overcast,180,2013-02-21 08:35:00
2:55 AM,74.8,66.7,76,29.63,7.0,South,15.0,19.6,N/A,,Overcast,180,2013-02-21 08:55:00
3:15 AM,74.7,66.6,76,29.63,5.0,South,13.8,25.3,N/A,,Haze,170,2013-02-21 09:15:00
3:35 AM,74.7,66.6,76,29.61,5.0,South,13.8,24.2,N/A,,Haze,170,2013-02-21 09:35:00
3:55 AM,74.3,66.6,77,29.61,5.0,South,13.8,20.7,N/A,,Haze,170,2013-02-21 09:55:00
4:15 AM,73.9,66.2,77,29.60,5.0,South,12.7,21.9,N/A,,Haze,170,2013-02-21 10:15:00
4:35 AM,73.6,66.2,78,29.60,5.0,South,12.7,20.7,N/A,,Haze,170,2013-02-21 10:35:00
4:55 AM,73.6,66.2,78,29.60,7.0,South,11.5,20.7,N/A,,Clear,170,2013-02-21 10:55:00
5:15 AM,73.2,66.2,79,29.61,7.0,South,11.5,-,N/A,,Clear,180,2013-02-21 11:15:00
5:55 AM,72.5,66.2,81,29.61,5.0,South,12.7,-,N/A,,Haze,170,2013-02-21 11:55:00
6:15 AM,72.3,66.2,81,29.61,5.0,South,6.9,-,N/A,,Haze,170,2013-02-21 12:15:00
6:35 AM,72.3,66.2,81,29.63,5.0,South,8.1,-,N/A,,Haze,170,2013-02-21 12:35:00
6:55 AM,72.1,66.2,82,29.63,5.0,SSE,12.7,18.4,N/A,,Haze,160,2013-02-21 12:55:00
7:15 AM,72.3,66.2,81,29.63,4.0,SSE,15.0,-,N/A,,Haze,160,2013-02-21 13:15:00
7:35 AM,72.7,66.4,81,29.64,5.0,South,13.8,21.9,N/A,,Haze,170,2013-02-21 13:35:00
7:55 AM,72.9,66.4,80,29.65,4.0,South,12.7,-,N/A,,Haze,170,2013-02-21 13:55:00
8:15 AM,73.0,66.4,80,29.66,4.0,South,13.8,20.7,N/A,,Haze,170,2013-02-21 14:15:00
8:35 AM,73.6,66.2,78,29.67,4.0,South,16.1,23.0,N/A,,Haze,170,2013-02-21 14:35:00
8:55 AM,74.5,66.2,75,29.67,4.0,South,15.0,21.9,N/A,,Haze,170,2013-02-21 14:55:00
9:15 AM,75.6,66.2,73,29.67,5.0,South,20.7,26.5,N/A,,Haze,170,2013-02-21 15:15:00
9:35 AM,77.5,65.5,66,29.67,5.0,South,18.4,28.8,N/A,,Haze,170,2013-02-21 15:35:00
9:55 AM,78.3,65.3,64,29.68,5.0,South,18.4,27.6,N/A,,Haze,170,2013-02-21 15:55:00
10:15 AM,79.9,64.9,60,29.68,5.0,South,18.4,29.9,N/A,,Haze,180,2013-02-21 16:15:00
10:35 AM,81.9,64.6,56,29.69,7.0,South,19.6,28.8,N/A,,Clear,180,2013-02-21 16:35:00
11:15 AM,84.9,63.7,49,29.68,5.0,South,17.3,24.2,N/A,,Haze,170,2013-02-21 17:15:00
11:55 AM,86.9,63.1,45,29.68,5.0,South,12.7,17.3,N/A,,Haze,180,2013-02-21 17:55:00
12:15 PM,88.9,62.6,41,29.66,5.0,SSE,11.5,17.3,N/A,,Haze,150,2013-02-21 18:15:00
12:35 PM,89.8,59.9,36,29.67,7.0,SW,10.4,-,N/A,,Clear,220,2013-02-21 18:35:00
12:55 PM,89.8,61.3,38,29.67,7.0,WSW,6.9,10.4,N/A,,Clear,240,2013-02-21 18:55:00
1:15 PM,90.0,58.8,35,29.67,7.0,WSW,5.8,-,N/A,,Clear,250,2013-02-21 19:15:00
1:35 PM,89.6,57.2,33,29.66,7.0,NW,9.2,-,N/A,,Clear,320,2013-02-21 19:35:00
1:55 PM,88.9,58.1,35,29.65,7.0,Calm,Calm,-,N/A,,Clear,0,2013-02-21 19:55:00
2:15 PM,90.0,57.6,33,29.64,5.0,Calm,Calm,-,N/A,,Haze,0,2013-02-21 20:15:00
2:35 PM,91.8,57.4,31,29.63,7.0,NNE,4.6,-,N/A,,Clear,20,2013-02-21 20:35:00
2:55 PM,90.3,58.5,34,29.63,5.0,North,15.0,-,N/A,,Haze,350,2013-02-21 20:55:00
3:15 PM,89.8,58.6,35,29.63,7.0,North,11.5,16.1,N/A,,Clear,350,2013-02-21 21:15:00
3:35 PM,90.3,57.4,33,29.63,7.0,North,9.2,-,N/A,,Clear,360,2013-02-21 21:35:00
3:55 PM,90.1,55.9,31,29.63,5.0,NNW,12.7,16.1,N/A,,Haze,340,2013-02-21 21:55:00
4:15 PM,90.3,57.2,33,29.64,7.0,North,13.8,18.4,N/A,,Clear,350,2013-02-21 22:15:00
4:35 PM,90.0,55.9,31,29.64,7.0,North,13.8,-,N/A,,Clear,360,2013-02-21 22:35:00
4:55 PM,88.0,55.8,33,29.65,7.0,North,16.1,23.0,N/A,,Clear,360,2013-02-21 22:55:00
5:15 PM,86.2,55.2,35,29.66,5.0,North,18.4,21.9,N/A,,Haze,350,2013-02-21 23:15:00
5:35 PM,85.5,54.7,35,29.67,7.0,North,15.0,-,N/A,,Clear,10,2013-02-21 23:35:00
5:55 PM,84.4,55.4,37,29.67,7.0,NNE,11.5,-,N/A,,Clear,20,2013-02-21 23:55:00
6:15 PM,83.8,56.3,39,29.69,7.0,NNE,11.5,-,N/A,,Clear,30,2013-02-22 00:15:00
6:35 PM,82.9,57.6,42,29.69,7.0,NNE,15.0,19.6,N/A,,Clear,30,2013-02-22 00:35:00
6:55 PM,82.4,58.5,44,29.71,7.0,NNE,12.7,-,N/A,,Clear,30,2013-02-22 00:55:00
7:15 PM,81.5,59.0,46,29.73,7.0,NNE,11.5,-,N/A,,Clear,30,2013-02-22 01:15:00
7:35 PM,79.5,54.3,42,29.74,7.0,NNE,16.1,-,N/A,,Clear,20,2013-02-22 01:35:00
7:55 PM,78.8,54.9,44,29.74,7.0,NNE,19.6,24.2,N/A,,Clear,20,2013-02-22 01:55:00
8:15 PM,77.9,53.8,43,29.75,7.0,NNE,17.3,-,N/A,,Scattered Clouds,30,2013-02-22 02:15:00
8:35 PM,77.0,52.9,43,29.77,7.0,NNE,13.8,23.0,N/A,,Mostly Cloudy,30,2013-02-22 02:35:00
8:55 PM,76.3,52.3,43,29.78,7.0,NNE,15.0,-,N/A,,Scattered Clouds,20,2013-02-22 02:55:00
9:15 PM,75.6,52.2,44,29.79,5.0,NNE,10.4,-,N/A,,Haze,30,2013-02-22 03:15:00
9:35 PM,75.2,51.4,43,29.80,7.0,NNE,9.2,-,N/A,,Clear,30,2013-02-22 03:35:00
9:55 PM,74.7,51.8,45,29.80,7.0,NNE,11.5,-,N/A,,Clear,20,2013-02-22 03:55:00
10:15 PM,73.9,51.4,45,29.80,7.0,NE,10.4,-,N/A,,Clear,40,2013-02-22 04:15:00
10:35 PM,73.6,50.7,45,29.80,7.0,NNE,10.4,-,N/A,,Clear,30,2013-02-22 04:35:00
10:55 PM,73.4,49.5,43,29.80,7.0,NE,10.4,-,N/A,,Clear,40,2013-02-22 04:55:00
11:15 PM,72.7,49.1,43,29.80,7.0,NE,8.1,-,N/A,,Clear,40,2013-02-22 05:15:00
11:35 PM,72.5,49.1,44,29.80,7.0,NE,9.2,-,N/A,,Scattered Clouds,40,2013-02-22 05:35:00
11:55 PM,72.0,49.5,45,29.81,7.0,NE,5.8,-,N/A,,Clear,50,2013-02-22 05:55:00